Weather Roundup
Issued by NWS Chicago, IL

Home | Current Version | Previous Version | Text Only | Print | Product List | Glossary Off
Versions: 1 2 3 4 5 6 7 8 9 10 11 12 13 14 15 16 17 18 19 20 21 22 23 24 25 26 27 28 29 30 31 32 33 34 35 36 37 38 39 40 41 42 43 44 45 46 47 48 49 50

000
NZUS59 KLOT 200606
HRRLOT

CHICAGO AREA WEATHER ROUNDUP
NATIONAL WEATHER SERVICE CHICAGO/ROMEOVILLE IL
100 AM CDT WED AUG 20 2014

NOTE: "FAIR" INDICATES FEW OR NO CLOUDS BELOW 12,000 FEET WITH NO
SIGNIFICANT WEATHER AND/OR OBSTRUCTIONS TO VISIBILITY.

* THESE STATIONS ARE NOT UNDER NWS QUALITY CONTROL. THEY ALSO MAY NOT
  REPORT WEATHER SUCH AS PRECIPITATION OR FOG.

ILZ005-006-012>014-019>023-200700-
NORTHEAST ILLINOIS

CITY           SKY/WX    TMP DP  RH WIND       PRES   REMARKS
OHARE            N/A     70  62  76 W6        29.79R
6HR MIN TEMP:  69; 6HR MAX TEMP:  82; 6HR PCP:  0.06;

MIDWAY           N/A     73  65  75 W6        29.79R
6HR MIN TEMP:  73; 6HR MAX TEMP:  83;

AURORA           N/A     64  61  90 CALM      29.81R
6HR MIN TEMP:  64; 6HR MAX TEMP:  80;

LANSING*         N/A     67  66  94 CALM      29.80S
JOLIET*          N/A     65  64  95 CALM      29.82R
WAUKEGAN         N/A     66  63  90 SW3       29.78R
6HR MIN TEMP:  65; 6HR MAX TEMP:  80;

DUPAGE AIRPORT   N/A     67  62  84 W6        29.80R
6HR MIN TEMP:  67; 6HR MAX TEMP:  82;

WHEELING         N/A     70  64  81 CALM      29.80R
6HR MIN TEMP:  69; 6HR MAX TEMP:  82; 6HR PCP:  0.11;

KANKAKEE*        N/A     67  66  96 W6        29.82S
MORRIS*          N/A     67  66  97 W5        29.81S
LEWIS AIRPORT*   N/A     67  66  96 W3        29.81R
NORTHERLY IS     N/A     75  63  66 W5          N/A
$$

WIZ051-052-058>065-066-070>072-200700-
SOUTHEAST WISCONSIN

CITY           SKY/WX    TMP DP  RH WIND       PRES   REMARKS
MILWAUKEE        N/A     68  63  84 SW3       29.77S
6HR MIN TEMP:  67; 6HR MAX TEMP:  74;

KENOSHA*         N/A     63  62  97 CALM      29.79R
RACINE*          N/A     68  65  90 W5        29.79S
BURLINGTON     MOCLDY    61  61  99 CALM      29.79S
WAUKESHA         N/A     63  61  94 W3        29.79S
WEST BEND        N/A     64  59  82 W3        29.78S
$$

INZ001>003-010>013-019-020-200700-
NORTHWEST INDIANA

CITY           SKY/WX    TMP DP  RH WIND       PRES   REMARKS
GARY*            N/A     72  68  88 SW5       29.79S
6HR MIN TEMP:  72; 6HR MAX TEMP:  80;

MICHIGAN CITY* NOT AVBL
RENSSELAER*    NOT AVBL
VALPARAISO       N/A     67  65  93 SW6       29.80S
$$

LMZ740>746-200700-
SOUTHERN LAKE MICHIGAN

STATION/POSITION TIME  SKY/WX   TEMP WIND        PRES    VSBY
                                AIR  DIR/SP/G
                 (UTC)          (F)  (DEG/KT/KT) (MB)    (MI)
HARRISON CRIB    0600            74  270/  9/  9   N/A
BURNHAM HARBOR   0600            75  270/  6/  6   N/A
CALUMET HARBOR   0600            73  210/  3/  4 1007.6S
BURNS HARBOR     0500            73  190/  7/  8   N/A
MICHIGAN CITY    0600            72  200/ 11/ 12   N/A
$$

ABBREVIATIONS USED IN REMARKS
   TC - TEMPERATURE IN CELSIUS
  WCI - WIND CHILL INDEX
   HX - HEAT INDEX
  VSB - VISIBILITY
$$



USA.gov is the U.S. government's official web portal to all federal, state and local government web resources and services.